Location: Cazarilh
(42.9578°N, 0.5819°E)
Time: 09:33:10
(UTC+00:00)

Meteor 2-13 Rocket - Pass Details

Date: 11 December 2019
Orbit: 937 x 957 km, 82.5° (Epoch: 19 January)

Event Time Altitude Azimuth Distance (km) Brightness Sun altitude
Rises 06:03:12 0° 349° (N) 3,633 7.2 -13.3°
Reaches altitude 10° 06:05:42 10° 348° (NNW) 2,686 6.5 -12.8°
Maximum altitude 06:11:49 75° 265° (W) 991 4.4 -11.8°
Drops below altitude 10° 06:17:56 10° 181° (S) 2,678 7.1 -10.7°
Sets 06:20:25 0° 180° (S) 3,620 7.8 -10.3°
